FW9244 Weather Reports


Display with metric or nautical units.
time (UTC)temp
F
wind
direction
speed
MPH
gust
MPH
rain 1hr
in
rain 24hr
in
rain mn
in
humidity
%
barometer
mb
20260505124544 49 0 0.0 3.0 0.11 0.17 0.17 94 1012.9
20260505123101 49 0 0.0 2.0 0.00 0.06 0.06 93 1012.9
20260505121539 49 149 2.0 5.0 0.00 0.06 0.06 93 1012.9
20260505120040 49 190 0.0 2.0 0.00 0.06 0.06 94 1013.0
20260505114551 49 143 0.0 2.0 0.00 0.06 0.06 94 1013.0
20260505113039 49 147 1.0 2.0 0.01 0.06 0.06 93 1013.0
20260505111552 50 0 1.0 5.0 0.01 0.06 0.06 93 1013.0
20260505101536 50 290 0.0 1.0 0.00 0.05 0.05 91 1013.1
20260505100036 50 0 0.0 0.0 0.00 0.05 0.05 91 1013.2
20260505094542 50 0 0.0 0.0 0.00 0.05 0.05 91 1013.2
20260505093038 50 0 0.0 0.0 0.01 0.05 0.05 91 1013.2
20260505091537 50 0 0.0 0.0 0.01 0.05 0.05 91 1013.5
20260505090039 50 0 0.0 1.0 0.01 0.05 0.05 91 1013.7
20260505084535 50 0 0.0 1.0 0.01 0.05 0.05 91 1013.8
20260505083044 50 0 0.0 1.0 0.03 0.04 0.04 92 1014.0
20260505081546 50 0 0.0 0.0 0.04 0.04 0.04 92 1014.3
20260505080041 50 295 0.0 1.0 0.04 0.04 0.04 92 1014.4
20260505074541 50 0 0.0 0.0 0.04 0.04 0.04 90 1014.3
20260505073034 50 0 0.0 1.0 0.01 0.01 0.01 89 1014.6
20260505071539 51 302 1.0 6.0 0.00 0.00 0.00 86 1014.7
20260505070044 51 292 2.0 5.0 0.00 0.00 0.00 83 1014.6
20260505064552 51 300 1.0 5.0 0.00 0.00 0.00 82 1014.7
20260505063041 51 304 2.0 7.0 0.00 0.00 0.00 82 1014.6
20260505061541 52 311 2.0 4.0 0.00 0.00 0.00 82 1014.7
20260505060033 52 311 1.0 6.0 0.00 0.00 0.00 81 1014.7
20260505054535 52 310 3.0 6.0 0.00 0.00 0.00 82 1014.9
20260505053034 52 315 2.0 8.0 0.00 0.00 0.00 83 1014.8
20260505051535 52 230 3.0 8.0 0.00 0.00 0.00 82 1015.0
20260505041541 53 310 8.0 12.0 0.00 0.00 0.00 76 1014.3
20260505040039 53 307 8.0 13.0 0.00 0.00 0.00 75 1014.2
20260505034539 53 293 6.0 12.0 0.00 0.00 0.00 74 1014.2
20260505033036 54 285 6.0 13.0 0.00 0.00 0.00 75 1014.1
20260505031535 54 301 7.0 13.0 0.00 0.00 0.00 75 1014.3
20260505030039 55 325 4.0 11.0 0.00 0.00 0.00 71 1014.2
20260505024543 55 263 5.0 9.0 0.00 0.00 0.00 70 1014.3
20260505023044 55 271 6.0 11.0 0.00 0.00 0.00 71 1014.2
20260505021543 56 233 4.0 10.0 0.00 0.00 0.00 69 1014.5
20260505020035 56 288 4.0 9.0 0.00 0.00 0.00 67 1014.3
20260505014543 57 284 5.0 9.0 0.00 0.00 0.00 67 1014.5
20260505013035 57 312 2.0 7.0 0.00 0.00 0.00 67 1014.6
20260505011535 57 262 5.0 10.0 0.00 0.00 0.00 67 1014.6
20260505010041 58 296 3.0 11.0 0.00 0.00 0.00 66 1014.5
20260505004536 59 260 4.0 10.0 0.00 0.00 0.00 64 1014.6
20260505003038 59 262 6.0 11.0 0.00 0.00 0.00 63 1014.5
20260505001548 59 301 8.0 16.0 0.00 0.00 0.00 61 1014.7
20260505000040 59 304 6.0 13.0 0.00 0.00 0.00 62 1014.5
20260504234534 61 308 7.0 13.0 0.00 0.00 0.00 60 1014.2
20260504233037 60 259 6.0 12.0 0.00 0.00 0.00 60 1014.3
20260504231553 61 271 3.0 11.0 0.00 0.00 0.00 57 1014.2
20260504230035 60 229 5.0 10.0 0.00 0.00 0.00 55 1014.3
20260504224540 61 277 1.0 6.0 0.00 0.00 0.00 55 1014.3
20260504223037 61 221 3.0 12.0 0.00 0.00 0.00 54 1014.6
20260504221538 61 270 2.0 11.0 0.00 0.00 0.00 53 1014.7
20260504220037 62 261 4.0 10.0 0.00 0.00 0.00 51 1014.8
20260504214534 62 16 3.0 10.0 0.00 0.00 0.00 50 1015.2
20260504213037 62 249 4.0 10.0 0.00 0.00 0.00 53 1015.5
20260504211547 62 300 5.0 10.0 0.00 0.00 0.00 52 1015.6
20260504210054 61 259 6.0 9.0 0.00 0.00 0.00 55 1015.6
20260504204541 59 0 3.0 10.0 0.00 0.00 0.00 56 1015.6
20260504203035 58 245 3.0 9.0 0.00 0.00 0.00 56 1015.6
20260504201546 59 281 2.0 9.0 0.00 0.00 0.00 56 1015.6
20260504200035 59 198 2.0 6.0 0.00 0.00 0.00 56 1015.7
20260504194558 58 281 2.0 6.0 0.00 0.00 0.00 57 1015.6
20260504193036 58 274 1.0 3.0 0.00 0.00 0.00 61 1015.8
20260504191542 58 238 2.0 6.0 0.00 0.00 0.00 59 1015.6
20260504190044 58 144 1.0 6.0 0.00 0.00 0.00 59 1015.6
20260504184541 58 217 3.0 7.0 0.00 0.00 0.00 59 1015.5
20260504183037 59 207 2.0 7.0 0.00 0.00 0.00 57 1015.7
20260504181541 59 309 1.0 6.0 0.00 0.00 0.00 59 1015.7
20260504180057 59 0 0.0 7.0 0.00 0.00 0.00 61 1015.9
20260504174535 58 146 0.0 8.0 0.00 0.00 0.00 63 1015.8
20260504173044 57 232 2.0 6.0 0.00 0.00 0.00 68 1015.9
20260504171536 55 271 2.0 6.0 0.00 0.00 0.00 72 1015.8